time, Switch, Flow(0), Analog(2)
yyyy/mm/dd HH:MM:SS.fff, True=FILTERED|False=TOTAL, L/min, V
2023/07/11 06:00:02.002, True, 4.643, 0.117876
2023/07/11 06:00:02.498, True, 4.723, 0.119631
2023/07/11 06:00:03.002, True, 4.636, 0.118410
2023/07/11 06:00:03.506, True, 4.642, 0.120699
2023/07/11 06:00:04.002, True, 4.381, 0.118868
2023/07/11 06:00:04.506, True, 3.647, 0.118105
2023/07/11 06:00:05.010, True, 3.979, 0.117647
2023/07/11 06:00:05.506, True, 3.369, 0.117189
2023/07/11 06:00:06.010, True, 3.649, 0.118639
2023/07/11 06:00:06.514, True, 3.316, 0.119020
2023/07/11 06:00:07.010, True, 3.369, 0.118715
2023/07/11 06:00:07.514, True, 3.647, 0.120470
2023/07/11 06:00:08.010, True, 3.371, 0.118486
2023/07/11 06:00:08.514, True, 3.316, 0.119860
2023/07/11 06:00:09.018, True, 3.647, 0.116808
2023/07/11 06:00:09.522, True, 3.648, 0.119402
2023/07/11 06:00:10.018, True, 3.369, 0.118486
2023/07/11 06:00:10.522, True, 3.649, 0.117189
2023/07/11 06:00:11.025, True, 3.647, 0.117571
2023/07/11 06:00:11.530, True, 3.316, 0.118563
2023/07/11 06:00:12.026, True, 3.707, 0.121538
2023/07/11 06:00:12.530, True, 3.316, 0.119478
2023/07/11 06:00:13.034, True, 3.647, 0.118410
2023/07/11 06:00:13.530, True, 3.706, 0.117647
2023/07/11 06:00:14.034, True, 3.648, 0.117266
2023/07/11 06:00:14.538, True, 3.317, 0.120165
2023/07/11 06:00:15.034, True, 3.370, 0.117952
2023/07/11 06:00:15.537, True, 3.647, 0.120317
2023/07/11 06:00:16.042, True, 3.319, 0.119173
2023/07/11 06:00:16.538, True, 3.367, 0.116350
2023/07/11 06:00:17.042, True, 3.316, 0.118944
2023/07/11 06:00:17.538, True, 3.706, 0.116808
2023/07/11 06:00:18.042, True, 3.316, 0.120165
2023/07/11 06:00:18.546, True, 3.648, 0.119860
2023/07/11 06:00:19.042, True, 3.370, 0.119402
2023/07/11 06:00:19.546, True, 3.320, 0.118868
2023/07/11 06:00:20.049, True, 3.643, 0.119631
2023/07/11 06:00:20.545, True, 3.706, 0.119783
2023/07/11 06:00:21.050, True, 3.648, 0.119173
2023/07/11 06:00:21.554, True, 3.321, 0.121157
2023/07/11 06:00:22.050, True, 3.365, 0.119249
2023/07/11 06:00:22.553, True, 3.648, 0.117723
2023/07/11 06:00:23.058, True, 3.321, 0.119173
2023/07/11 06:00:23.554, True, 3.706, 0.120546
2023/07/11 06:00:24.057, True, 3.644, 0.120470
2023/07/11 06:00:24.562, True, 3.320, 0.121309
2023/07/11 06:00:25.058, True, 3.706, 0.122148
2023/07/11 06:00:25.562, True, 3.649, 0.121233
2023/07/11 06:00:26.065, True, 3.646, 0.122530
2023/07/11 06:00:26.561, True, 3.369, 0.124819
2023/07/11 06:00:27.066, True, 3.646, 0.123140
2023/07/11 06:00:27.570, True, 3.643, 0.123140
2023/07/11 06:00:28.066, True, 3.373, 0.124514
2023/07/11 06:00:28.570, True, 3.645, 0.120623
2023/07/11 06:00:29.074, True, 3.315, 0.123980
2023/07/11 06:00:29.570, True, 3.370, 0.126268
2023/07/11 06:00:30.073, True, 3.317, 0.124514
2023/07/11 06:00:30.578, True, 3.648, 0.124666
2023/07/11 06:00:31.074, True, 3.370, 0.125277
2023/07/11 06:00:31.578, True, 3.314, 0.123522
2023/07/11 06:00:32.082, True, 3.316, 0.123980
2023/07/11 06:00:32.578, True, 3.709, 0.124132
2023/07/11 06:00:33.082, True, 3.644, 0.123445
2023/07/11 06:00:33.586, True, 3.316, 0.124361
2023/07/11 06:00:34.082, True, 3.711, 0.124895
2023/07/11 06:00:34.586, True, 3.644, 0.125734
2023/07/11 06:00:35.090, True, 3.316, 0.123293
2023/07/11 06:00:35.586, True, 3.371, 0.124208
2023/07/11 06:00:36.090, True, 3.651, 0.126268
2023/07/11 06:00:36.594, True, 3.312, 0.124132
2023/07/11 06:00:37.090, True, 3.707, 0.124666
2023/07/11 06:00:37.594, True, 3.316, 0.127260
2023/07/11 06:00:38.098, True, 3.648, 0.127489
2023/07/11 06:00:38.594, True, 3.369, 0.125277
2023/07/11 06:00:39.098, True, 3.647, 0.124590
2023/07/11 06:00:39.594, True, 3.369, 0.123140
2023/07/11 06:00:40.098, True, 3.318, 0.124361
2023/07/11 06:00:40.602, True, 3.646, 0.125811
2023/07/11 06:00:41.098, True, 3.370, 0.122911
2023/07/11 06:00:41.602, True, 3.648, 0.123980
2023/07/11 06:00:42.106, True, 3.316, 0.124743
2023/07/11 06:00:42.602, True, 3.369, 0.125582
2023/07/11 06:00:43.106, True, 3.316, 0.124819
2023/07/11 06:00:43.609, True, 3.316, 0.123522
2023/07/11 06:00:44.106, True, 3.370, 0.124208
2023/07/11 06:00:44.610, True, 3.647, 0.124208
2023/07/11 06:00:45.114, True, 2.984, 0.125353
2023/07/11 06:00:45.609, True, 3.371, 0.126116
2023/07/11 06:00:46.114, True, 3.314, 0.124208
2023/07/11 06:00:46.618, True, 3.316, 0.122759
2023/07/11 06:00:47.114, True, 3.706, 0.124666
2023/07/11 06:00:47.618, True, 3.316, 0.124437
2023/07/11 06:00:48.122, True, 3.652, 0.122911
2023/07/11 06:00:48.617, True, 3.702, 0.126955
2023/07/11 06:00:49.122, True, 3.316, 0.124437
2023/07/11 06:00:49.626, True, 3.650, 0.125277
2023/07/11 06:00:50.122, True, 3.374, 0.125277
2023/07/11 06:00:50.626, True, 3.309, 0.124132
2023/07/11 06:00:51.122, True, 3.369, 0.122835
2023/07/11 06:00:51.626, True, 3.647, 0.123445
2023/07/11 06:00:52.130, True, 3.319, 0.123445
2023/07/11 06:00:52.634, True, 3.313, 0.123751
2023/07/11 06:00:53.130, True, 3.708, 0.125200
2023/07/11 06:00:53.634, True, 3.314, 0.122835
2023/07/11 06:00:54.138, True, 3.654, 0.126040
2023/07/11 06:00:54.634, True, 3.364, 0.126726
2023/07/11 06:00:55.138, True, 3.316, 0.124819
2023/07/11 06:00:55.642, True, 3.318, 0.124514
2023/07/11 06:00:56.138, True, 3.369, 0.125124
2023/07/11 06:00:56.642, True, 3.316, 0.121309
2023/07/11 06:00:57.146, True, 3.647, 0.123522
2023/07/11 06:00:57.642, True, 3.375, 0.122377
2023/07/11 06:00:58.146, True, 3.973, 0.125048
2023/07/11 06:00:58.650, True, 3.316, 0.123674
2023/07/11 06:00:59.154, True, 3.648, 0.124132
2023/07/11 06:00:59.650, True, 3.710, 0.122835
2023/07/11 06:01:00.154, True, 3.312, 0.124361
2023/07/11 06:01:00.658, True, 3.648, 0.123140
2023/07/11 06:01:01.154, True, 3.706, 0.122988
2023/07/11 06:01:01.658, True, 3.648, 0.124514
2023/07/11 06:01:02.162, True, 3.317, 0.124132
2023/07/11 06:01:02.658, True, 3.368, 0.123064
2023/07/11 06:01:03.162, True, 3.649, 0.121843
2023/07/11 06:01:03.666, True, 3.315, 0.122225
2023/07/11 06:01:04.162, True, 3.707, 0.125353
2023/07/11 06:01:04.666, True, 3.647, 0.123217
2023/07/11 06:01:05.170, True, 3.316, 0.123445
2023/07/11 06:01:05.666, True, 3.712, 0.125277
2023/07/11 06:01:06.170, True, 3.642, 0.122530
2023/07/11 06:01:06.666, True, 3.707, 0.121920
2023/07/11 06:01:07.170, True, 3.650, 0.122759
2023/07/11 06:01:07.674, True, 3.644, 0.124285
2023/07/11 06:01:08.170, True, 3.372, 0.124361
2023/07/11 06:01:08.674, True, 3.645, 0.122606
2023/07/11 06:01:09.178, True, 3.316, 0.122301
2023/07/11 06:01:09.674, True, 3.370, 0.123903
2023/07/11 06:01:10.178, True, 3.647, 0.123522
2023/07/11 06:01:10.682, True, 3.648, 0.122911
2023/07/11 06:01:11.178, True, 3.369, 0.122683
2023/07/11 06:01:11.682, True, 3.648, 0.123827
2023/07/11 06:01:12.186, True, 3.316, 0.123827
2023/07/11 06:01:12.682, True, 3.370, 0.124819
2023/07/11 06:01:13.186, True, 3.651, 0.120851
2023/07/11 06:01:13.690, True, 3.643, 0.122454
2023/07/11 06:01:14.194, True, 3.648, 0.121614
2023/07/11 06:01:14.690, True, 3.370, 0.122454
2023/07/11 06:01:15.194, True, 3.654, 0.123522
2023/07/11 06:01:15.698, True, 3.646, 0.124056
2023/07/11 06:01:16.194, True, 3.364, 0.122835
2023/07/11 06:01:16.698, True, 3.648, 0.122301
2023/07/11 06:01:17.202, True, 3.648, 0.123980
2023/07/11 06:01:17.706, True, 3.647, 0.123674
2023/07/11 06:01:18.202, True, 3.707, 0.121843
2023/07/11 06:01:18.706, True, 3.318, 0.123980
2023/07/11 06:01:19.210, True, 3.645, 0.122148
2023/07/11 06:01:19.706, True, 3.709, 0.121462
2023/07/11 06:01:20.209, True, 3.651, 0.122530
2023/07/11 06:01:20.714, True, 3.311, 0.122606
2023/07/11 06:01:21.210, True, 3.705, 0.124285
2023/07/11 06:01:21.714, True, 3.319, 0.123217
2023/07/11 06:01:22.218, True, 3.314, 0.122835
2023/07/11 06:01:22.714, True, 3.369, 0.123217
2023/07/11 06:01:23.218, True, 3.650, 0.122072
2023/07/11 06:01:23.722, True, 3.314, 0.121843
2023/07/11 06:01:24.218, True, 3.371, 0.121309
2023/07/11 06:01:24.722, True, 3.646, 0.121843
2023/07/11 06:01:25.226, True, 3.316, 0.122454
2023/07/11 06:01:25.722, True, 3.706, 0.123445
2023/07/11 06:01:26.226, True, 3.317, 0.123827
2023/07/11 06:01:26.730, True, 3.650, 0.123445
2023/07/11 06:01:27.226, True, 3.368, 0.120775
2023/07/11 06:01:27.730, True, 3.316, 0.121691
2023/07/11 06:01:28.234, True, 3.316, 0.121920
2023/07/11 06:01:28.729, True, 3.705, 0.124285
2023/07/11 06:01:29.234, True, 3.316, 0.121309
2023/07/11 06:01:29.738, True, 3.316, 0.121538
2023/07/11 06:01:30.234, True, 3.370, 0.122377
2023/07/11 06:01:30.738, True, 3.316, 0.123827
2023/07/11 06:01:31.242, True, 3.647, 0.121080
2023/07/11 06:01:31.738, True, 3.370, 0.121614
2023/07/11 06:01:32.242, True, 3.316, 0.121996
2023/07/11 06:01:32.746, True, 3.648, 0.121691
2023/07/11 06:01:33.242, True, 3.369, 0.121462
2023/07/11 06:01:33.746, True, 3.316, 0.122377
2023/07/11 06:01:34.250, True, 3.647, 0.120699
2023/07/11 06:01:34.746, True, 3.370, 0.123140
2023/07/11 06:01:35.250, True, 3.316, 0.123598
2023/07/11 06:01:35.746, True, 3.707, 0.122759
2023/07/11 06:01:36.250, True, 3.648, 0.121004
2023/07/11 06:01:36.754, True, 3.650, 0.121614
2023/07/11 06:01:37.250, True, 3.367, 0.121920
2023/07/11 06:01:37.753, True, 3.648, 0.120546
2023/07/11 06:01:38.258, True, 3.647, 0.120394
2023/07/11 06:01:38.754, True, 3.707, 0.122072
2023/07/11 06:01:39.258, True, 3.316, 0.120012
2023/07/11 06:01:39.762, True, 3.647, 0.122301
2023/07/11 06:01:40.258, True, 3.373, 0.123064
2023/07/11 06:01:40.762, True, 3.648, 0.121004
2023/07/11 06:01:41.266, True, 3.312, 0.121843
2023/07/11 06:01:41.770, True, 3.316, 0.120470
2023/07/11 06:01:42.266, True, 3.370, 0.119783
2023/07/11 06:01:42.770, True, 3.315, 0.121004
2023/07/11 06:01:43.274, True, 3.654, 0.119860
2023/07/11 06:01:43.770, True, 3.364, 0.122454
2023/07/11 06:01:44.274, True, 3.321, 0.121386
2023/07/11 06:01:44.778, True, 3.311, 0.123140
2023/07/11 06:01:45.274, True, 3.706, 0.120851
2023/07/11 06:01:45.778, True, 3.317, 0.120851
2023/07/11 06:01:46.282, True, 3.315, 0.122377
2023/07/11 06:01:46.778, True, 3.706, 0.119554
2023/07/11 06:01:47.282, True, 3.648, 0.118410
2023/07/11 06:01:47.786, True, 3.318, 0.121843
2023/07/11 06:01:48.281, True, 3.706, 0.122377
2023/07/11 06:01:48.786, True, 3.645, 0.119249
2023/07/11 06:01:49.290, True, 3.317, 0.121233
2023/07/11 06:01:49.786, True, 3.707, 0.120012
2023/07/11 06:01:50.290, True, 3.647, 0.122454
2023/07/11 06:01:50.786, True, 3.707, 0.121614
2023/07/11 06:01:51.290, True, 3.648, 0.119936
2023/07/11 06:01:51.794, True, 3.647, 0.120012
2023/07/11 06:01:52.290, True, 3.370, 0.122225
2023/07/11 06:01:52.794, True, 3.649, 0.120241
2023/07/11 06:01:53.298, True, 3.646, 0.120851
2023/07/11 06:01:53.794, True, 3.370, 0.122683
2023/07/11 06:01:54.298, True, 3.318, 0.121920
2023/07/11 06:01:54.802, True, 3.318, 0.120317
2023/07/11 06:01:55.298, True, 3.365, 0.123217
2023/07/11 06:01:55.802, True, 3.651, 0.121309
2023/07/11 06:01:56.306, True, 3.318, 0.122148
2023/07/11 06:01:56.810, True, 3.645, 0.123140
2023/07/11 06:01:57.306, True, 3.370, 0.122301
2023/07/11 06:01:57.810, True, 2.984, 0.119631
2023/07/11 06:01:58.314, True, 3.645, 0.122148
2023/07/11 06:01:58.810, True, 3.373, 0.120012
2023/07/11 06:01:59.314, True, 3.314, 0.119326
2023/07/11 06:01:59.818, True, 3.647, 0.119860
2023/07/11 06:02:00.314, True, 3.368, 0.123064
2023/07/11 06:02:00.817, True, 3.320, 0.121309
2023/07/11 06:02:01.322, True, 3.317, 0.120470
2023/07/11 06:02:01.818, True, 3.701, 0.120775
2023/07/11 06:02:02.322, True, 3.650, 0.119860
2023/07/11 06:02:02.826, True, 3.317, 0.119936
2023/07/11 06:02:03.330, True, 3.645, 0.119478
2023/07/11 06:02:03.826, True, 3.369, 0.121386
2023/07/11 06:02:04.330, True, 2.984, 0.120699
2023/07/11 06:02:04.833, True, 3.322, 0.121386
2023/07/11 06:02:05.330, True, 3.364, 0.123064
2023/07/11 06:02:05.834, True, 3.316, 0.121691
2023/07/11 06:02:06.338, True, 3.316, 0.120928
2023/07/11 06:02:06.834, True, 3.707, 0.121996
2023/07/11 06:02:07.338, True, 3.317, 0.120928
2023/07/11 06:02:07.842, True, 3.314, 0.119936
2023/07/11 06:02:08.346, True, 3.322, 0.120623
2023/07/11 06:02:08.842, True, 3.363, 0.122377
2023/07/11 06:02:09.346, True, 3.316, 0.120241
2023/07/11 06:02:09.842, True, 3.370, 0.120394
2023/07/11 06:02:10.346, True, 3.316, 0.121767
2023/07/11 06:02:10.850, True, 2.988, 0.122759
2023/07/11 06:02:11.346, True, 3.364, 0.119173
2023/07/11 06:02:11.850, True, 3.647, 0.120241
2023/07/11 06:02:12.354, True, 3.317, 0.119936
2023/07/11 06:02:12.850, True, 3.369, 0.119249
2023/07/11 06:02:13.354, True, 3.318, 0.119707
2023/07/11 06:02:13.858, True, 3.313, 0.120699
2023/07/11 06:02:14.354, True, 3.370, 0.123217
2023/07/11 06:02:14.858, True, 3.315, 0.120012
2023/07/11 06:02:15.362, True, 3.648, 0.120394
2023/07/11 06:02:15.858, True, 3.032, 0.120317
2023/07/11 06:02:16.362, True, 3.647, 0.119554
2023/07/11 06:02:16.866, True, 3.317, 0.121309
2023/07/11 06:02:17.370, True, 3.316, 0.119936
2023/07/11 06:02:17.866, True, 3.707, 0.122225
2023/07/11 06:02:18.370, True, 3.315, 0.119707
2023/07/11 06:02:18.874, True, 3.320, 0.121767
2023/07/11 06:02:19.370, True, 3.365, 0.119249
2023/07/11 06:02:19.874, True, 3.647, 0.120317
2023/07/11 06:02:20.378, True, 3.321, 0.120928
2023/07/11 06:02:20.874, True, 3.702, 0.119554
2023/07/11 06:02:21.378, True, 3.315, 0.119936
2023/07/11 06:02:21.882, True, 3.651, 0.120928
2023/07/11 06:02:22.378, True, 3.367, 0.121004
2023/07/11 06:02:22.882, True, 3.316, 0.120394
2023/07/11 06:02:23.378, True, 3.706, 0.121843
2023/07/11 06:02:23.882, True, 3.316, 0.121996
2023/07/11 06:02:24.386, True, 3.315, 0.120775
2023/07/11 06:02:24.882, True, 3.369, 0.119783
2023/07/11 06:02:25.386, True, 3.317, 0.119249
2023/07/11 06:02:25.890, True, 3.316, 0.119860
2023/07/11 06:02:26.386, True, 3.371, 0.119097
2023/07/11 06:02:26.890, True, 3.314, 0.119783
2023/07/11 06:02:27.394, True, 3.649, 0.120851
2023/07/11 06:02:27.890, True, 3.367, 0.120165
2023/07/11 06:02:28.394, True, 3.316, 0.119936
2023/07/11 06:02:28.898, True, 3.317, 0.122454
2023/07/11 06:02:29.394, True, 3.369, 0.119020
2023/07/11 06:02:29.898, True, 3.318, 0.119783
2023/07/11 06:02:30.402, True, 3.314, 0.121004
2023/07/11 06:02:30.898, True, 3.370, 0.120851
2023/07/11 06:02:31.402, True, 3.316, 0.120089
2023/07/11 06:02:31.906, True, 3.317, 0.119249
2023/07/11 06:02:32.402, True, 3.369, 0.120317
2023/07/11 06:02:32.906, True, 3.647, 0.119554
2023/07/11 06:02:33.410, True, 3.316, 0.121538
2023/07/11 06:02:33.906, True, 3.370, 0.119173
2023/07/11 06:02:34.410, True, 3.650, 0.119860
2023/07/11 06:02:34.914, True, 3.646, 0.119402
2023/07/11 06:02:35.410, True, 3.037, 0.118868
2023/07/11 06:02:35.914, True, 3.642, 0.121080
2023/07/11 06:02:36.418, True, 3.316, 0.119707
2023/07/11 06:02:36.914, True, 3.370, 0.122530
2023/07/11 06:02:37.418, True, 3.648, 0.121538
2023/07/11 06:02:37.922, True, 3.316, 0.117876
2023/07/11 06:02:38.418, True, 3.369, 0.120546
2023/07/11 06:02:38.922, True, 3.316, 0.120394
2023/07/11 06:02:39.426, True, 3.318, 0.119249
2023/07/11 06:02:39.930, True, 3.652, 0.118715
2023/07/11 06:02:40.426, True, 3.363, 0.120699
2023/07/11 06:02:40.930, True, 3.316, 0.120699
2023/07/11 06:02:41.434, True, 3.649, 0.118715
2023/07/11 06:02:41.930, True, 3.369, 0.120089
2023/07/11 06:02:42.434, True, 3.646, 0.120775
2023/07/11 06:02:42.938, True, 3.317, 0.120470
2023/07/11 06:02:43.433, True, 3.369, 0.122301
2023/07/11 06:02:43.938, True, 3.316, 0.119402
2023/07/11 06:02:44.433, True, 3.369, 0.121462
2023/07/11 06:02:44.938, True, 3.316, 0.118944
2023/07/11 06:02:45.442, True, 3.316, 0.120699
2023/07/11 06:02:45.946, True, 3.320, 0.119173
2023/07/11 06:02:46.442, True, 3.366, 0.119097
2023/07/11 06:02:46.946, True, 3.647, 0.119860
2023/07/11 06:02:47.450, True, 3.647, 0.120470
2023/07/11 06:02:47.946, True, 3.370, 0.120623
2023/07/11 06:02:48.450, True, 3.650, 0.120089
2023/07/11 06:02:48.954, True, 3.319, 0.119936
2023/07/11 06:02:49.450, True, 3.706, 0.119173
2023/07/11 06:02:49.954, True, 3.312, 0.118868
2023/07/11 06:02:50.458, True, 3.651, 0.118563
2023/07/11 06:02:50.954, True, 3.366, 0.121004
2023/07/11 06:02:51.458, True, 3.316, 0.120623
2023/07/11 06:02:51.962, True, 3.316, 0.120775
2023/07/11 06:02:52.458, True, 3.371, 0.119554
2023/07/11 06:02:52.962, True, 3.314, 0.120470
2023/07/11 06:02:53.465, True, 3.316, 0.119936
2023/07/11 06:02:53.962, True, 3.371, 0.119173
2023/07/11 06:02:54.466, True, 3.319, 0.120546
2023/07/11 06:02:54.970, True, 3.311, 0.120699
2023/07/11 06:02:55.466, True, 3.706, 0.119173
2023/07/11 06:02:55.970, True, 3.316, 0.120165
2023/07/11 06:02:56.474, True, 3.648, 0.118791
2023/07/11 06:02:56.970, True, 3.370, 0.118486
2023/07/11 06:02:57.474, True, 3.648, 0.119020
2023/07/11 06:02:57.978, True, 3.648, 0.118944
2023/07/11 06:02:58.474, True, 3.369, 0.119478
2023/07/11 06:02:58.978, True, 3.316, 0.120165
2023/07/11 06:02:59.482, True, 3.649, 0.117571
2023/07/11 06:02:59.977, True, 3.369, 0.119936
2023/07/11 06:03:00.482, True, 3.647, 0.120851
2023/07/11 06:03:00.986, True, 3.648, 0.118105
2023/07/11 06:03:01.482, True, 3.370, 0.119249
2023/07/11 06:03:01.986, True, 3.316, 0.121309
2023/07/11 06:03:02.490, True, 3.316, 0.119249
2023/07/11 06:03:02.986, True, 3.369, 0.119249
2023/07/11 06:03:03.490, True, 3.316, 0.121080
2023/07/11 06:03:03.994, True, 3.648, 0.118410
2023/07/11 06:03:04.498, True, 3.318, 0.117571
2023/07/11 06:03:04.994, True, 3.368, 0.119936
2023/07/11 06:03:05.498, True, 3.315, 0.118334
2023/07/11 06:03:06.002, True, 3.648, 0.120699
2023/07/11 06:03:06.498, True, 3.369, 0.119783
2023/07/11 06:03:07.002, True, 3.317, 0.120317
2023/07/11 06:03:07.506, True, 3.315, 0.117876
2023/07/11 06:03:08.002, True, 3.370, 0.121462
2023/07/11 06:03:08.506, True, 3.315, 0.118334
2023/07/11 06:03:09.010, True, 3.317, 0.119402
2023/07/11 06:03:09.506, True, 3.706, 0.118257
2023/07/11 06:03:10.010, True, 3.316, 0.119326
2023/07/11 06:03:10.514, True, 3.649, 0.118486
2023/07/11 06:03:11.010, True, 3.369, 0.118410
2023/07/11 06:03:11.514, True, 3.655, 0.118791
2023/07/11 06:03:12.010, True, 3.364, 0.121843
2023/07/11 06:03:12.514, True, 3.647, 0.118181
2023/07/11 06:03:13.018, True, 3.316, 0.120851
2023/07/11 06:03:13.513, True, 3.711, 0.118181
2023/07/11 06:03:14.018, True, 3.314, 0.119402
2023/07/11 06:03:14.522, True, 3.646, 0.120165
2023/07/11 06:03:15.018, True, 3.370, 0.117189
2023/07/11 06:03:15.522, True, 3.316, 0.120623
2023/07/11 06:03:16.026, True, 3.318, 0.119020
2023/07/11 06:03:16.522, True, 3.706, 0.119936
2023/07/11 06:03:17.025, True, 3.316, 0.118715
2023/07/11 06:03:17.530, True, 3.647, 0.119173
2023/07/11 06:03:18.026, True, 3.371, 0.120089
2023/07/11 06:03:18.530, True, 3.646, 0.118029
2023/07/11 06:03:19.034, True, 3.316, 0.118029
2023/07/11 06:03:19.530, True, 3.710, 0.118410
2023/07/11 06:03:20.034, True, 3.644, 0.120317
2023/07/11 06:03:20.538, True, 3.317, 0.118257
2023/07/11 06:03:21.034, True, 3.706, 0.119326
2023/07/11 06:03:21.538, True, 3.316, 0.119783
2023/07/11 06:03:22.042, True, 3.648, 0.119097
2023/07/11 06:03:22.537, True, 3.370, 0.120241
2023/07/11 06:03:23.042, True, 3.647, 0.119020
2023/07/11 06:03:23.546, True, 3.648, 0.118944
2023/07/11 06:03:24.042, True, 3.374, 0.120241
2023/07/11 06:03:24.546, True, 3.644, 0.119631
2023/07/11 06:03:25.050, True, 3.320, 0.119936
2023/07/11 06:03:25.546, True, 3.702, 0.119173
2023/07/11 06:03:26.050, True, 3.649, 0.119783
2023/07/11 06:03:26.554, True, 3.321, 0.118486
2023/07/11 06:03:27.050, True, 3.368, 0.118257
2023/07/11 06:03:27.554, True, 3.643, 0.120012
2023/07/11 06:03:28.058, True, 3.321, 0.119173
2023/07/11 06:03:28.554, True, 3.369, 0.118410
2023/07/11 06:03:29.057, True, 3.311, 0.118791
2023/07/11 06:03:29.561, True, 3.651, 0.118029
2023/07/11 06:03:30.066, True, 3.316, 0.121309
2023/07/11 06:03:30.562, True, 3.710, 0.118868
2023/07/11 06:03:31.066, True, 3.641, 0.119020
2023/07/11 06:03:31.570, True, 3.322, 0.120089
2023/07/11 06:03:32.066, True, 3.371, 0.118868
2023/07/11 06:03:32.570, True, 3.647, 0.119478
2023/07/11 06:03:33.074, True, 3.640, 0.120317
2023/07/11 06:03:33.570, True, 3.370, 0.119097
2023/07/11 06:03:34.074, True, 3.649, 0.121004
2023/07/11 06:03:34.578, True, 3.651, 0.120317
2023/07/11 06:03:35.074, True, 3.364, 0.117952
2023/07/11 06:03:35.578, True, 3.655, 0.119097
2023/07/11 06:03:36.082, True, 3.310, 0.119249
2023/07/11 06:03:36.578, True, 3.706, 0.119097
2023/07/11 06:03:37.082, True, 3.653, 0.117952
2023/07/11 06:03:37.586, True, 3.643, 0.121996
2023/07/11 06:03:38.090, True, 3.319, 0.119936
2023/07/11 06:03:38.586, True, 3.366, 0.120470
2023/07/11 06:03:39.090, True, 3.647, 0.119478
2023/07/11 06:03:39.586, True, 3.369, 0.118868
2023/07/11 06:03:40.090, True, 3.648, 0.120546
2023/07/11 06:03:40.594, True, 3.648, 0.119478
2023/07/11 06:03:41.090, True, 3.374, 0.121614
2023/07/11 06:03:41.594, True, 3.643, 0.120317
2023/07/11 06:03:42.098, True, 3.648, 0.118334
2023/07/11 06:03:42.594, True, 3.369, 0.117571
2023/07/11 06:03:43.098, True, 3.316, 0.121767
2023/07/11 06:03:43.602, True, 3.317, 0.120928
2023/07/11 06:03:44.098, True, 3.368, 0.120394
2023/07/11 06:03:44.602, True, 3.316, 0.121843
2023/07/11 06:03:45.106, True, 3.315, 0.119097
2023/07/11 06:03:45.610, True, 3.652, 0.117494
2023/07/11 06:03:46.106, True, 3.034, 0.121462
2023/07/11 06:03:46.610, True, 3.310, 0.119402
2023/07/11 06:03:47.114, True, 3.648, 0.119173
2023/07/11 06:03:47.610, True, 3.370, 0.120165
2023/07/11 06:03:48.113, True, 3.316, 0.119173
2023/07/11 06:03:48.618, True, 3.647, 0.119860
2023/07/11 06:03:49.114, True, 3.370, 0.118105
2023/07/11 06:03:49.618, True, 3.648, 0.117266
2023/07/11 06:03:50.122, True, 3.316, 0.119478
2023/07/11 06:03:50.618, True, 3.369, 0.117800
2023/07/11 06:03:51.122, True, 3.648, 0.116579
2023/07/11 06:03:51.626, True, 3.316, 0.118639
2023/07/11 06:03:52.130, True, 3.648, 0.118410
2023/07/11 06:03:52.626, True, 3.369, 0.120394
2023/07/11 06:03:53.130, True, 3.647, 0.119631
2023/07/11 06:03:53.634, True, 3.648, 0.119707
2023/07/11 06:03:54.130, True, 3.369, 0.119478
2023/07/11 06:03:54.634, True, 3.655, 0.119249
2023/07/11 06:03:55.138, True, 3.309, 0.118868
2023/07/11 06:03:55.634, True, 3.711, 0.119020
2023/07/11 06:03:56.138, True, 3.312, 0.119936
2023/07/11 06:03:56.642, True, 3.317, 0.118563
2023/07/11 06:03:57.138, True, 3.707, 0.118486
2023/07/11 06:03:57.642, True, 3.316, 0.119860
2023/07/11 06:03:58.146, True, 3.646, 0.117037
2023/07/11 06:03:58.642, True, 3.371, 0.119020
2023/07/11 06:03:59.146, True, 3.653, 0.120165
2023/07/11 06:03:59.650, True, 3.642, 0.118334
2023/07/11 06:04:00.146, True, 3.369, 0.121004
2023/07/11 06:04:00.650, True, 3.316, 0.119402
2023/07/11 06:04:01.154, True, 3.654, 0.120394
2023/07/11 06:04:01.650, True, 3.364, 0.118257
2023/07/11 06:04:02.154, True, 3.647, 0.119478
2023/07/11 06:04:02.658, True, 3.317, 0.121462
2023/07/11 06:04:03.154, True, 3.706, 0.120699
2023/07/11 06:04:03.658, True, 3.647, 0.119936
2023/07/11 06:04:04.162, True, 3.316, 0.118563
2023/07/11 06:04:04.658, True, 3.707, 0.116655
2023/07/11 06:04:05.162, True, 3.315, 0.118029
2023/07/11 06:04:05.666, True, 3.649, 0.117800
2023/07/11 06:04:06.162, True, 3.369, 0.119707
2023/07/11 06:04:06.666, True, 3.315, 0.119402
2023/07/11 06:04:07.162, True, 3.708, 0.120470
2023/07/11 06:04:07.666, True, 3.316, 0.118486
2023/07/11 06:04:08.169, True, 3.315, 0.121004
2023/07/11 06:04:08.666, True, 3.369, 0.120623
2023/07/11 06:04:09.170, True, 3.316, 0.118715
2023/07/11 06:04:09.674, True, 3.316, 0.117647
2023/07/11 06:04:10.170, True, 3.370, 0.118944
2023/07/11 06:04:10.674, True, 3.316, 0.120241
2023/07/11 06:04:11.178, True, 3.648, 0.119631